Regional Weather Roundup
Issued by NWS Midland/Odessa, TX

Skip options and go directly to product.
Home | Oldest Version | Previous Version | Current Version | All | Graphics & Text | Save Text | Print | Product List | Glossary On

Skip product version selection by date and time.   
987
ASUS44 KMAF 312110
RWRMAF
MIDLAND AREA WEATHER ROUNDUP
NATIONAL WEATHER SERVICE MIDLAND TX
400 PM CDT TUE MAY 31 2016

...IN SOUTHWEST TEXAS AND SOUTHEAST NEW MEXICO...

CITY           SKY/WX    TMP DP  RH WIND       PRES   REMARKS
ALPINE         SUNNY     81  52  36 SW8G18    29.97F
ANDREWS        FAIR      80  54  39 SW5       29.86F
ARTESIA        MOSUNNY   82  48  30 NE9       29.86F
BIG SPRING     SUNNY     80  54  39 CALM      29.87F
CARLSBAD       MOSUNNY   85  46  25 SE5       29.82F
DRYDEN           N/A     80  62  54 S10       29.82F
FORT STOCKTON  NOT AVBL
GUAD PASS      NOT AVBL
HOBBS          MOSUNNY   82  48  30 S3        29.88F
MARFA          SUNNY     80  54  40 S14       29.95F
MIDLAND AIRPK  SUNNY     85  49  29 CALM      29.85F
MIDLAND INTL   SUNNY     86  52  30 SE7       29.84F
ODESSA         SUNNY     83  54  36 CALM      29.85F
PECOS          MOSUNNY   89  51  26 N9G16     29.79F
PRESIDIO       FAIR      84  55  36 CALM      29.82F
SEMINOLE       MOSUNNY   84  52  33 SE9       29.88F
SNYDER           N/A     75  62  65 E23       29.89R THUNDER
WINK           SUNNY     87  50  27 MISG      29.80F
$$
...OTHER STATIONS IN TEXAS...

CITY           SKY/WX    TMP DP  RH WIND       PRES   REMARKS
ABILENE        LGT RAIN  69  68  96 NE18G28   29.87R
AMARILLO       MOSUNNY   77  52  41 E12       29.96F
AUSTIN         TSTM      76  74  93 NW7       29.87R FOG
BROWNSVILLE    PTSUNNY   88  75  65 SE21G26   29.78F
CORPUS CHRISTI PTSUNNY   87  73  62 SE20G29   29.77F
DALLAS FTW     TSTM      78  73  84 N3        29.85R
DEL RIO        MOSUNNY   81  69  67 W10       29.79R
EL PASO        PTSUNNY   84  41  21 VRB5G16   29.87F
HOUSTON INT    PTSUNNY   85  68  56 SE16      29.83F
LUBBOCK        PTSUNNY   79  57  46 E13       29.90F
SAN ANGELO     SUNNY     87  62  43 SW7       29.79F
SAN ANTONIO    TSTM      69  66  90 N6        29.84F
WACO           CLOUDY    81  71  71 S6        29.85R
WICHITA FALLS  NOT AVBL
$$
...OTHER LOCATIONS IN NEW MEXICO...

CITY           SKY/WX    TMP DP  RH WIND       PRES   REMARKS
ALAMAGORDO     PTSUNNY   81  41  24 S7        29.89F
ALBUQUERQUE    CLOUDY    74  32  21 SE17      29.97F
CANNON AFB     MOSUNNY   76  54  46 E14G23    29.95F
CLOVIS         MOSUNNY   75  54  46 SE12G20   29.96F
HOLLOMAN AFB   MOSUNNY   85  41  21 VRB2G17   29.86F
ROSWELL        CLOUDY    79  44  28 N13       29.91S
RUIDOSO          N/A     59  45  58 SE10      30.13F
SANTA FE       CLOUDY    71  33  24 E21G29    30.03F
TRUTH OR CONSE CLOUDY    78  35  21 NW21      29.93F
TUCUMCARI      SUNNY     80  50  34 E14G24    29.93F
$$

USA.gov is the U.S. government's official web portal to all federal, state and local government web resources and services.